This demonstration page uses our WeatherBlox Daily Observations layout. Learn more.

Left ArrowRight Arrow

36.19886, -115.1175

Hourly Observations for February 28, 2021

Temp ( °F °C ) Dew Point ( °F °C ) Humidity (%) Winds ( mph kmh ) Pressure ( in mb ) Visibility ( mi km ) Precip ( " mm )
12:53 am 00:53 Clear 45 7.2 6 -14.4 20 20 NW 23 37 30.19 1023 10 16 N/A
1:53 am 01:53 Clear 44 6.7 7 -13.9 22 22 NW 23 37 30.21 1023 10 16 N/A
2:53 am 02:53 Clear 43 6.1 7 -13.9 22 22 NW 20 31 30.22 1023 10 16 N/A
3:53 am 03:53 Clear 42 5.6 7 -13.9 23 23 NW 17 28 30.24 1024 10 16 N/A
4:53 am 04:53 Clear 42 5.6 7 -13.9 23 23 NW 21 33 30.25 1024 10 16 N/A
5:53 am 05:53 Clear 42 5.6 6 -14.4 22 22 NNW 21 33 30.27 1025 10 16 N/A
6:53 am 06:53 Sunny 42 5.6 6 -14.4 22 22 NNW 18 30 30.31 1026 10 16 N/A
7:53 am 07:53 Sunny 44 6.7 7 -13.9 22 22 NW 22 35 30.34 1027 10 16 N/A
8:53 am 08:53 Sunny 46 7.8 7 -13.9 20 20 NNW 15 24 30.35 1028 10 16 N/A
9:53 am 09:53 Sunny 48 8.9 6 -14.4 18 18 NNW 12 19 30.37 1028 10 16 N/A
10:53 am 10:53 Sunny 49 9.4 6 -14.4 17 17 N 7 11 30.36 1028 10 16 N/A
11:53 am 11:53 Sunny 51 10.6 4 -15.6 14 14 VRB 7 11 30.33 1027 10 16 N/A
12:53 pm 12:53 Sunny 53 11.7 2 -16.7 12 12 WNW 6 9 30.32 1027 10 16 N/A
1:53 pm 13:53 Sunny 55 12.8 1 -17.2 11 11 NW 6 9 30.29 1026 10 16 N/A
2:53 pm 14:53 Sunny 57 13.9 -1 -18.3 9 9 VRB 6 9 30.29 1026 10 16 N/A
3:53 pm 15:53 Sunny 56 13.3 -5 -20.6 8 8 E 9 15 30.29 1026 10 16 N/A
4:53 pm 16:53 Sunny 54 12.2 -2 -18.9 10 10 ESE 8 13 30.30 1026 10 16 N/A
5:53 pm 17:53 Clear 53 11.7 -1 -18.3 11 11 SE 6 9 30.30 1026 10 16 N/A
6:53 pm 18:53 Clear 52 11.1 N/A 11 11 S 5 7 30.31 1027 10 16 N/A
7:53 pm 19:53 Clear 50 10 3 -16.1 14 14 WNW 6 9 30.32 1027 10 16 N/A
8:53 pm 20:53 Clear 48 8.9 4 -15.6 16 16 WSW 6 9 30.33 1027 10 16 N/A
9:53 pm 21:53 Clear 45 7.2 4 -15.6 18 18 W 3 6 30.34 1027 10 16 N/A
10:53 pm 22:53 Clear 43 6.1 4 -15.6 20 20 N N/A 30.34 1027 10 16 N/A
11:53 pm 23:53 Clear 43 6.1 5 -15 21 21 SW 6 9 30.34 1028 10 16 N/A

Powered by AerisWeather